Regional Weather Roundup
Issued by NWS Grand Forks, ND

Home | Current Version | Previous Version | Text Only | Print | Product List | Glossary Off
Versions: 1 2 3 4 5 6 7 8 9 10 11 12 13 14 15 16 17 18 19 20 21 22 23 24 25 26 27 28 29 30 31 32 33 34 35 36 37 38 39 40 41 42 43 44 45 46 47 48 49 50

000
ASUS43 KFGF 271710
RWRFGF
PRAIRIE TO PINES  WEATHER ROUNDUP
NATIONAL WEATHER SERVICE EASTERN NORTH DAKOTA/GRAND FORKS ND
1200 PM CDT MON APR 27 2015

 **SATELLITE DATA USED TO AUGMENT SKY COVER AT AUTOMATED STATIONS**
 *****  WEATHER ACROSS EASTERN NORTH DAKOTA  *****

CITY           SKY/WX    TMP DP  RH WIND       PRES   REMARKS
GRAND FORKS    CLOUDY    64  43  46 VRB3      30.22S
GRAND FRKS AFB MOSUNNY   61  43  50 VRB2      30.22S
GRAND FRKS NWS   N/A     63 N/A N/A VRB5        N/A
DEVILS LAKE    PTSUNNY   52  39  62 NW10G17   30.25S
FARGO          MOSUNNY   67  26  21 W6        30.22F
WAHPETON ARPT  MOSUNNY   63  16  16 CALM      30.25F
$$

 ***** WEATHER ACROSS CENTRAL AND WESTERN NORTH DAKOTA  *****

CITY           SKY/WX    TMP DP  RH WIND       PRES   REMARKS
BISMARCK       CLOUDY    48  43  82 N14       30.29R
MINOT          LGT RAIN  44  40  85 NW10      30.30S
JAMESTOWN      MOSUNNY   65  34  31 VRB7      30.21F
MINOT AFB      LGT RAIN  43  43 100 NW9       30.30R
GARRISON         N/A     44  41  89 N10       30.31R
WILLISTON      CLOUDY    46  39  76 W6        30.34R
DICKINSON      LGT RAIN  43  39  86 NW9       30.31S
HETTINGER      CLOUDY    42  39  89 NW15      30.32S
$$

 *****  OTHER AIRPORT OBSERVATIONS IN OUR AREA  *****

CITY           SKY/WX    TMP DP  RH WIND       PRES   REMARKS
WALHALLA       FAIR      54  41  62 N12       30.25S
GRAFTON AIRPOR FAIR      59  45  58 N9G15     30.23F
VALLEY CITY AR FAIR      64  28  25 CALM      30.22F
CANDO          CLOUDY    46  39  76 N10       30.28S
CAVALIER APRT  FAIR      55  43  62 NW10      30.24S
GWINNER        SUNNY     64  27  24 SW6       30.24F
SHEYENNE NWR     N/A     67  21  17 NW6       29.95
ROLLA          LGT RAIN  41  41 100 NW10      30.29R
 ***** THE ABOVE OBSERVATIONS ARE NON NWS ARE NOT QUALITY
       CONTROLLED AND MAY MIS-REPORT RAIN FOR SNOW...
$$

  *****  WEATHER ACROSS NORTHERN MINNESOTA  *****

CITY           SKY/WX    TMP DP  RH WIND       PRES   REMARKS
FLAG ISLAND    PTSUNNY   50  23  34 SE5       30.20S
WARROAD        MOSUNNY   66  34  30 W7        30.20F
ROSEAU         PTSUNNY   66  30  26 SW8       30.20F
HALLOCK        CLOUDY    59  41  51 N9        30.22F
THF RVR FALLS  PTSUNNY   66  27  22 SW8       30.22S
BAUDETTE       SUNNY     67  24  19 N6        30.20F
WASKISH        MOSUNNY   63  25  23 CALM      30.22S
CROOKSTON      PTSUNNY   66  30  26 W8        30.22F
$$
  *****  WEATHER ACROSS CENTRAL AND WEST MINNESOTA  *****

CITY           SKY/WX    TMP DP  RH WIND       PRES   REMARKS
FOSSTON        MOSUNNY   68  25  19 W7        30.23S
BEMIDJI        MOSUNNY   64  28  25 N6        30.22S
PARK RAPIDS    SUNNY     66  22  18 NW7       30.22F
ELBOW LAKE     FAIR      62  22  22 NW5       30.25F
WADENA         SUNNY     63  27  25 W6        30.23F
DETROIT LAKES  SUNNY     63  23  22 NW6       30.25S
MOORHEAD       MOSUNNY   64  21  19 W5        30.23F
FERGUS FALLS   SUNNY     63  16  16 W5        30.25F
MORRIS MN      SUNNY     64  23  20 W7        30.24F
STAPLES        SUNNY     64  19  17 N7        30.24S
$$
  *****  WEATHER ELSEWHERE ACROSS MINNESOTA  *****

CITY           SKY/WX    TMP DP  RH WIND       PRES   REMARKS
DULUTH         SUNNY     57  28  33 SE8       30.22S
INTRNTL FALLS  SUNNY     61  23  23 VRB5      30.22S
ELY            SUNNY     55  25  30 CALM      30.22F
CLOQUET        SUNNY     61  19  20 CALM      30.22S
WHEATON        SUNNY     63  21  20 E3        30.26F
BRAINERD       SUNNY     63  19  18 VRB6      30.23F
HIBBING        SUNNY     62  21  20 VRB7      30.21F
ALEXANDRIA     SUNNY     61  23  23 W7        30.26F
SAINT CLOUD    SUNNY     62  25  24 NW7       30.24F
MINNEAPOLIS    SUNNY     61  29  29 VRB3      30.24F
$$

  *****  WEATHER ACROSS SOUTH DAKOTA  *****

CITY           SKY/WX    TMP DP  RH WIND       PRES   REMARKS
SIOUX FALLS    MOSUNNY   63  28  26 NE5       30.22F
BROOKINGS      NOT AVBL
WATERTOWN      NOT AVBL
HURON          SUNNY     66  25  21 N6        30.23F
SISSETON         N/A     65  18  16 E3        30.23F
ABERDEEN       SUNNY     66  22  18 VRB3      30.23F
MITCHELL       SUNNY     64  35  34 VRB6      30.23F
PIERRE           N/A    N/A N/A N/A MISG      30.22F
MOBRIDGE       MOSUNNY   60  44  55 NW10      30.22F
RAPID CITY     CLOUDY    44  39  82 N20G29    30.30R
$$

  *****  SOME WEATHER IN NEARBY STATES *****

CITY           SKY/WX    TMP DP  RH WIND       PRES   REMARKS
GLASGOW MT     SUNNY     50  36  58 SW7       30.33F
GREAT FALLS MT SUNNY     51  28  41 SW14      30.27F
CHEYENNE WY    CLOUDY    38  35  89 N3        30.28R FOG
SCOTTSBLUFF NE CLOUDY    50  41  71 W5        30.29R
OMAHA NE       MOSUNNY   63  32  31 NE10G21   30.21S
DES MOINES IA  MOSUNNY   65  28  24 N14       30.20S
DAVENPORT IA   SUNNY     58  35  42 NE9G18    30.17F
CHICAGO IL     MOSUNNY   53  34  48 NE15      30.12S
EAU CLAIRE WI  SUNNY     61  30  31 NW10G20   30.20F
LA CROSSE WI   SUNNY     59  32  36 NW10      30.19F
$$

  *****  SOME NATIONAL WEATHER *****

CITY           SKY/WX    TMP DP  RH WIND       PRES   REMARKS
LA GUARDIA NY  PTSUNNY   57  32  38 NW13G23   29.66F
RALEIGH NC     MOSUNNY   64  37  36 W9        29.83F
ATLANTA GA     PTSUNNY   68  48  48 VRB5      29.88F
NEW ORLEANS LA TSTM      65  61  87 NE38G49   29.82R FOG
OKLAHOMA CITY  TSTM      54  47  77 E22G30    29.84F
ALBUQUERQUE NM PTSUNNY   53  39  59 VRB6      30.05S
SALT LAKE CITY MOSUNNY   52  39  61 NW13G20   30.25S
LOS ANGELES CA MOSUNNY   74  47  38 VRB5      29.96S
BOISE ID       SUNNY     52  29  41 CALM      30.33S
SEATTLE WA     PTSUNNY   61  51  70 SE5       30.25F
$$

*** WEATHER ACROSS MANITOBA...SASKATCHEWAN AND ONTARIO ***
                ***ONTARIO***

CITY           SKY/WX    TMP DP  RH WIND       PRES   REMARKS
GERALDTON      SUNNY     46  32  57 VRB5      30.20F
THUNDER BAY    MOSUNNY   61  28  29 SE6       30.18F
SIOUX LOOKOUT  MOSUNNY   57  27  30 VRB5      30.22F
TORONTO        PTSUNNY   46  37  71 N17       29.90R
BIG TROUT LK   SUNNY     45  30  57 SE3       30.23F
PICKLE LAKE    PTSUNNY   52  25  35 VRB2      30.22F
DRYDEN         SUNNY     59  25  27 S3        30.21F
KENORA         CLOUDY    59  23  25 SW9       30.21S
$$
                *** MANITOBA***

CITY           SKY/WX    TMP DP  RH WIND       PRES   REMARKS
BRANDON        LGT RAIN  45  39  81 NW14      30.28S
DAUPHIN        SUNNY     46  34  61 W15       30.26S
ISLAND LAKE    CLOUDY    46  37  71 SW7       30.13S
PILOT MOUND      N/A     43  39  87 NW12        N/A
THE PAS        CLOUDY    39  36  87 W10       30.23R
THOMPSON       DRIZZLE   39  36  87 W12       30.09R
WINNIPEG       LGT RAIN  50  41  71 N10       30.26R
LYNN LAKE      CLOUDY    34  32  93 N12       30.18S
CHURCHILL      LGT SNOW  27  25  93 E12       30.27F WCI  16
GILLAM         CLOUDY    45  30  57 SE3       30.09F
$$
                ***SASKATCHEWAN***

CITY           SKY/WX    TMP DP  RH WIND       PRES   REMARKS
ESTEVAN        CLOUDY    46  41  81 W8        30.31S
KINDERSLEY     MOSUNNY   55  32  41 S15G22    30.19F
LLOYDMINSTER   PTSUNNY   55  28  35 S16       30.14F
PRINCE ALBERT  MOSUNNY   43  34  70 S3        30.27S
REGINA         SUNNY     52  32  46 NW7       30.30F
YORKTON        SUNNY     46  32  57 W10       30.28F
N. BATTLEFORD  SUNNY     54  37  54 SE7       30.23F
LA RONGE       PTSUNNY   36  32  87 S6        30.26F FOG
SASKATOON      MOSUNNY   43  34  70 S8        30.28S
SWIFT CURRENT  SUNNY     52  30  43 SW10G20   30.23F
$$
NOTE: THESE ARE AUTOMATED STATIONS WITH LIMITED QUALITY CONTROL
      "FAIR" INDICATES FEW OR NO CLOUDS BELOW 12,000 FEET WITH NO
      SIGNIFICANT WEATHER AND/OR OBSTRUCTIONS TO VISIBILITY.
      SKY/WX - SKY CONDITION AND SIGNIFICANT WEATHER.
      TMP - AIR TEMPERATURE.    DP   - DEWPOINT TEMPERATURE.
      RH  - RELATIVE HUMIDITY.  PRES - PRESSURE.
      HX  - HEAT INDEX.         WCI  - WIND CHILL INDEX.
$



USA.gov is the U.S. government's official web portal to all federal, state and local government web resources and services.